Weather History for KFFA - April, 2014

Change the Weather History Date:

Thursday, April 17, 2014

  Actual Average (KMQI) Record (KMQI)
Temperature  
Mean Temperature 47 °F -  
Max Temperature 52 °F 66 °F 84 °F (1976)
Min Temperature 42 °F 51 °F 38 °F (1975)
Degree Days  
Heating Degree Days 18    
Moisture  
Dew Point 40 °F    
Average Humidity 75    
Maximum Humidity 91    
Minimum Humidity 65    
Precipitation  
Precipitation 0.00 in - - ()
Sea Level Pressure  
Sea Level Pressure 30.47 in    
Wind  
Wind Speed 11 mph (NNE)    
Max Wind Speed 16 mph    
Max Gust Speed 26 mph    
Visibility 9 miles    
Events      
Averages and records for this station are not official NWS values.
T = Trace of Precipitation, MM = Missing Value Source: NWS Daily Summary

Daily Weather History Graph

Daily Weather History Graph

Search for Another Location

Airport or City:

Trip Planner

Search our weather history database for the weather conditions in past years. The results will help you decide how hot, cold, wet, or windy it might be!

Date:

Astronomy

Apr. 17, 2014 Rise Set
Actual Time 6:26 AM EDT 7:38 PM EDT
Civil Twilight 6:00 AM EDT 8:04 PM EDT
Nautical Twilight 5:28 AM EDT 8:36 PM EDT
Astronomical Twilight 4:56 AM EDT 9:09 PM EDT
Moon 10:17 PM EDT (4/17) 8:00 AM EDT (4/17)
Length of Visible Light 14h 04m
Length of Day
13h 11m
Waning Gibbous, 94% of the Moon is Illuminated
Apr 17
Waning Gibbous
Apr 22
Last Quarter
Apr 29
New
May 6
First Quarter
May 14
Full

Hourly Weather History & Observations

Time (EDT) Temp. Windchill Dew Point Humidity Pressure Visibility Wind Dir Wind Speed Gust Speed Precip Events Conditions
12:15 AM 42.8 °F 36.6 °F 33.1 °F 69% 30.45 in 10.0 mi NNE 11.5 mph 21.9 mph N/A   Clear
12:35 AM 43.0 °F 36.8 °F 33.3 °F 69% 30.44 in 10.0 mi North 11.5 mph 21.9 mph N/A   Clear
12:55 AM 43.2 °F 37.4 °F 33.1 °F 68% 30.44 in 10.0 mi NNE 10.4 mph 23.0 mph N/A   Clear
1:15 AM 43.2 °F 36.6 °F 33.3 °F 68% 30.44 in 10.0 mi North 12.7 mph 19.6 mph N/A   Clear
1:35 AM 43.3 °F 37.7 °F 33.8 °F 69% 30.43 in 10.0 mi NNE 10.4 mph 21.9 mph N/A   Scattered Clouds
1:55 AM 43.3 °F 36.8 °F 34.2 °F 70% 30.43 in 10.0 mi NNE 12.7 mph 20.7 mph N/A   Scattered Clouds
2:15 AM 43.3 °F 38.1 °F 34.7 °F 72% 30.43 in 10.0 mi North 9.2 mph 19.6 mph N/A   Clear
2:35 AM 43.5 °F 37.5 °F 35.2 °F 73% 30.42 in 10.0 mi NNE 11.5 mph 20.7 mph N/A   Scattered Clouds
2:55 AM 43.7 °F 38.6 °F 35.4 °F 73% 30.42 in 10.0 mi North 9.2 mph 23.0 mph N/A   Scattered Clouds
3:15 AM 43.7 °F 38.1 °F 35.4 °F 73% 30.43 in 10.0 mi NNE 10.4 mph 20.7 mph N/A   Clear
3:35 AM 43.7 °F 38.6 °F 35.8 °F 74% 30.43 in 10.0 mi North 9.2 mph 20.7 mph N/A   Scattered Clouds
3:55 AM 43.7 °F 37.7 °F 36.0 °F 74% 30.43 in 10.0 mi NNE 11.5 mph 20.7 mph N/A   Scattered Clouds
4:15 AM 43.9 °F 39.9 °F 36.3 °F 75% 30.43 in 10.0 mi North 6.9 mph 19.6 mph N/A   Mostly Cloudy
4:35 AM 44.1 °F 38.6 °F 36.5 °F 75% 30.43 in 10.0 mi North 10.4 mph 21.9 mph N/A   Mostly Cloudy
4:55 AM 44.2 °F 39.7 °F 36.9 °F 75% 30.43 in 10.0 mi North 8.1 mph 16.1 mph N/A   Scattered Clouds
5:15 AM 44.2 °F 38.8 °F 37.0 °F 76% 30.43 in 10.0 mi North 10.4 mph 18.4 mph N/A   Clear
5:35 AM 44.4 °F 40.0 °F 37.2 °F 76% 30.44 in 10.0 mi North 8.1 mph 18.4 mph N/A   Clear
5:55 AM 44.6 °F 40.2 °F 37.4 °F 76% 30.44 in 10.0 mi North 8.1 mph 20.7 mph N/A   Clear
6:15 AM 44.6 °F 38.8 °F 37.6 °F 76% 30.45 in 10.0 mi North 11.5 mph 18.4 mph N/A   Clear
6:35 AM 44.8 °F 38.7 °F 37.8 °F 76% 30.47 in 10.0 mi North 12.7 mph 19.6 mph N/A   Scattered Clouds
6:55 AM 45.1 °F 39.9 °F 38.3 °F 77% 30.47 in 10.0 mi North 10.4 mph 19.6 mph N/A   Mostly Cloudy
7:15 AM 45.7 °F 40.6 °F 38.5 °F 76% 30.48 in 10.0 mi North 10.4 mph 19.6 mph N/A   Overcast
7:35 AM 45.9 °F 40.0 °F 38.7 °F 76% 30.48 in 10.0 mi North 12.7 mph 17.3 mph N/A   Overcast
7:55 AM 46.9 °F - 39.2 °F 74% 30.49 in 10.0 mi NNE 12.7 mph 23.0 mph N/A   Overcast
8:15 AM 47.1 °F - 39.2 °F 74% 30.49 in 10.0 mi NNE 12.7 mph 21.9 mph N/A   Mostly Cloudy
8:35 AM 47.3 °F - 39.4 °F 74% 30.49 in 10.0 mi NNE 12.7 mph 23.0 mph N/A   Mostly Cloudy
8:55 AM 47.7 °F - 39.6 °F 73% 30.50 in 10.0 mi NNE 11.5 mph 23.0 mph N/A   Mostly Cloudy
9:15 AM 48.4 °F - 40.1 °F 73% 30.50 in - North 12.7 mph 21.9 mph N/A   Overcast
9:35 AM 49.6 °F - 40.3 °F 70% 30.50 in - NNE 11.5 mph 19.6 mph N/A   Scattered Clouds
9:55 AM 50.7 °F - 40.1 °F 67% 30.51 in - NNE 10.4 mph 20.7 mph N/A   Clear
10:15 AM 50.9 °F - 40.3 °F 67% 30.52 in - NNE 12.7 mph 20.7 mph N/A   Mostly Cloudy
10:35 AM 49.8 °F - 39.9 °F 69% 30.52 in - NNE 12.7 mph 23.0 mph N/A   Overcast
10:55 AM 50.0 °F - 39.9 °F 68% 30.52 in - North 13.8 mph 21.9 mph N/A   Overcast
11:15 AM 51.1 °F - 40.5 °F 67% 30.52 in - NNE 15.0 mph 25.3 mph N/A   Mostly Cloudy
11:35 AM 51.3 °F - 40.6 °F 67% 30.52 in - NNE 10.4 mph 23.0 mph N/A   Scattered Clouds
11:55 AM 51.1 °F - 40.6 °F 67% 30.52 in - NNE 11.5 mph 20.7 mph N/A   Mostly Cloudy
12:15 PM 51.8 °F - 40.3 °F 65% 30.52 in - NNE 12.7 mph 25.3 mph N/A   Scattered Clouds
12:35 PM 51.6 °F - 40.8 °F 67% 30.52 in - NNE 10.4 mph 24.2 mph N/A   Scattered Clouds
12:55 PM 51.8 °F - 41.0 °F 67% 30.52 in - NNE 9.2 mph 21.9 mph N/A   Mostly Cloudy
1:15 PM 52.2 °F - 41.2 °F 66% 30.52 in - NNE 12.7 mph 21.9 mph N/A   Overcast
1:35 PM 51.8 °F - 41.4 °F 68% 30.52 in - NNE 13.8 mph 23.0 mph N/A   Overcast
1:55 PM 51.6 °F - 40.8 °F 67% 30.51 in - NNE 10.4 mph 21.9 mph N/A   Overcast
2:15 PM 51.4 °F - 40.8 °F 67% 30.51 in - NNE 12.7 mph 24.2 mph N/A   Mostly Cloudy
2:35 PM 51.3 °F - 41.0 °F 68% 30.50 in - NNE 16.1 mph 26.5 mph N/A   Clear
2:55 PM 50.9 °F - 41.0 °F 69% 30.49 in - NE 11.5 mph 26.5 mph N/A   Clear
3:15 PM 50.9 °F - 41.4 °F 70% 30.49 in - NNE 11.5 mph 23.0 mph N/A   Clear
3:35 PM 50.7 °F - 41.7 °F 71% 30.49 in - North 12.7 mph 20.7 mph N/A   Clear
3:55 PM 50.0 °F - 41.5 °F 73% 30.48 in - NNE 10.4 mph 20.7 mph N/A   Unknown
4:15 PM 50.5 °F - 41.9 °F 72% 30.49 in - NNE 11.5 mph 21.9 mph N/A   Unknown
4:35 PM 50.7 °F - 42.1 °F 72% 30.49 in - NNE 13.8 mph 21.9 mph N/A   Unknown
4:55 PM 50.0 °F - 41.7 °F 73% 30.49 in - NNE 12.7 mph 20.7 mph N/A   Unknown
5:15 PM 49.6 °F - 41.5 °F 74% 30.49 in - NNE 15.0 mph 20.7 mph N/A   Unknown
5:35 PM 49.5 °F - 41.7 °F 75% 30.48 in - NNE 10.4 mph 19.6 mph N/A   Unknown
5:55 PM 49.1 °F - 41.7 °F 76% 30.48 in - NNE 12.7 mph 23.0 mph N/A   Unknown
6:15 PM 48.4 °F - 41.9 °F 78% 30.47 in 7.0 mi NNE 13.8 mph 21.9 mph N/A   Clear
6:35 PM 47.7 °F - 41.9 °F 80% 30.47 in 7.0 mi NNE 11.5 mph 19.6 mph N/A   Clear
6:55 PM 47.5 °F - 41.9 °F 81% 30.46 in 7.0 mi NNE 10.4 mph 21.9 mph N/A   Clear
7:15 PM 46.8 °F - 41.9 °F 83% 30.46 in 7.0 mi NNE 12.7 mph 20.7 mph N/A   Clear
7:35 PM 46.4 °F 40.1 °F 42.1 °F 85% 30.46 in 7.0 mi NNE 15.0 mph 23.0 mph N/A   Clear
7:55 PM 46.0 °F 39.9 °F 42.1 °F 86% 30.46 in 7.0 mi NNE 13.8 mph 21.9 mph N/A   Clear
8:15 PM 45.9 °F 39.4 °F 42.3 °F 87% 30.45 in 7.0 mi NNE 15.0 mph 21.9 mph N/A   Clear
8:35 PM 45.9 °F 39.7 °F 42.3 °F 87% 30.45 in 7.0 mi NNE 13.8 mph 23.0 mph N/A   Clear
8:55 PM 45.7 °F 41.0 °F 42.3 °F 88% 30.45 in 7.0 mi NNE 9.2 mph 24.2 mph N/A   Clear
9:15 PM 45.9 °F 40.4 °F 42.6 °F 88% 30.46 in 7.0 mi NNE 11.5 mph 21.9 mph N/A   Clear
9:35 PM 45.9 °F 40.8 °F 42.8 °F 89% 30.46 in 7.0 mi NNE 10.4 mph 23.0 mph N/A   Clear
9:55 PM 45.7 °F 40.6 °F 42.8 °F 90% 30.47 in 7.0 mi North 10.4 mph 21.9 mph N/A   Scattered Clouds
10:15 PM 45.7 °F 41.0 °F 42.8 °F 90% 30.47 in 7.0 mi NNE 9.2 mph 18.4 mph N/A   Mostly Cloudy
10:35 PM 45.7 °F 40.6 °F 43.0 °F 90% 30.46 in 7.0 mi North 10.4 mph 20.7 mph N/A   Mostly Cloudy
10:55 PM 45.7 °F 41.0 °F 42.8 °F 90% 30.46 in 7.0 mi North 9.2 mph 20.7 mph N/A   Scattered Clouds
11:15 PM 45.7 °F 40.6 °F 43.0 °F 90% 30.47 in 7.0 mi North 10.4 mph 21.9 mph N/A   Scattered Clouds
11:35 PM 45.7 °F 39.8 °F 43.0 °F 90% 30.47 in 7.0 mi NNE 12.7 mph 21.9 mph N/A   Scattered Clouds
11:55 PM 45.7 °F 40.6 °F 43.2 °F 91% 30.46 in 7.0 mi NNE 10.4 mph 18.4 mph N/A   Scattered Clouds